Time,TemperatureF,DewpointF,PressureIn,WindDirection,WindDirectionDegrees,WindSpeedMPH,WindSpeedGustMPH,Humidity,HourlyPrecipIn,Conditions,Clouds,dailyrainin,SoftwareType,DateUTC
2013-08-24 00:00:00,75.4,70.2,29.98,West,277,0.0,0.0,84,0.00,,,0.00,VWS V14.01,2013-08-23 22:00:00,
2013-08-24 00:02:00,75.3,70.1,29.98,West,277,0.0,0.0,84,0.00,,,0.00,VWS V14.01,2013-08-23 22:02:00,
2013-08-24 00:07:00,75.4,70.2,29.98,West,277,0.0,0.0,84,0.00,,,0.00,VWS V14.01,2013-08-23 22:07:00,
2013-08-24 00:10:00,75.5,70.3,29.98,West,277,0.0,0.0,84,0.00,,,0.00,VWS V14.01,2013-08-23 22:10:00,
2013-08-24 00:12:00,75.5,70.3,29.98,West,277,0.0,0.0,84,0.00,,,0.00,VWS V14.01,2013-08-23 22:12:00,
2013-08-24 00:17:00,75.5,70.3,29.98,West,277,0.0,0.0,84,0.00,,,0.00,VWS V14.01,2013-08-23 22:17:00,
2013-08-24 00:20:00,75.3,70.1,29.98,West,277,0.0,0.0,84,0.00,,,0.00,VWS V14.01,2013-08-23 22:20:00,
2013-08-24 00:22:00,75.3,70.1,29.97,West,277,0.0,0.0,84,0.00,,,0.00,VWS V14.01,2013-08-23 22:22:00,
2013-08-24 00:27:00,75.2,70.0,29.98,West,277,0.0,0.0,84,0.00,,,0.00,VWS V14.01,2013-08-23 22:27:00,
2013-08-24 00:30:00,75.1,70.3,29.97,West,277,0.0,0.0,85,0.00,,,0.00,VWS V14.01,2013-08-23 22:30:00,
2013-08-24 00:32:00,75.2,70.4,29.97,West,277,0.0,0.0,85,0.00,,,0.00,VWS V14.01,2013-08-23 22:32:00,
2013-08-24 00:37:00,75.1,70.3,29.97,West,277,0.0,0.0,85,0.00,,,0.00,VWS V14.01,2013-08-23 22:37:00,
2013-08-24 00:40:00,75.0,70.2,29.98,West,277,0.0,0.0,85,0.00,,,0.00,VWS V14.01,2013-08-23 22:40:00,
2013-08-24 00:42:00,75.1,70.3,29.98,West,277,0.0,0.0,85,0.00,,,0.00,VWS V14.01,2013-08-23 22:42:00,
2013-08-24 00:47:00,74.9,70.1,29.98,West,277,0.0,0.0,85,0.00,,,0.00,VWS V14.01,2013-08-23 22:47:00,
2013-08-24 00:50:00,74.8,70.0,29.97,West,277,0.0,0.0,85,0.00,,,0.00,VWS V14.01,2013-08-23 22:50:00,
2013-08-24 00:52:00,74.9,70.1,29.97,West,277,0.0,0.0,85,0.00,,,0.00,VWS V14.01,2013-08-23 22:52:00,
2013-08-24 00:57:00,74.8,70.3,29.98,West,277,0.0,0.0,86,0.00,,,0.00,VWS V14.01,2013-08-23 22:57:00,
2013-08-24 01:00:00,74.8,70.3,29.97,West,277,1.0,2.0,86,0.00,,,0.00,VWS V14.01,2013-08-23 23:00:00,
2013-08-24 01:02:00,74.8,70.0,29.98,West,277,0.0,0.0,85,0.00,,,0.00,VWS V14.01,2013-08-23 23:02:00,
2013-08-24 01:07:00,74.8,70.3,29.97,West,277,2.0,2.0,86,0.00,,,0.00,VWS V14.01,2013-08-23 23:07:00,
2013-08-24 01:10:00,74.8,70.3,29.97,West,277,0.0,3.0,86,0.00,,,0.00,VWS V14.01,2013-08-23 23:10:00,
2013-08-24 01:12:00,74.7,70.2,29.97,West,277,1.0,3.0,86,0.00,,,0.00,VWS V14.01,2013-08-23 23:12:00,
2013-08-24 01:17:00,74.8,70.3,29.97,West,277,0.0,0.0,86,0.00,,,0.00,VWS V14.01,2013-08-23 23:17:00,
2013-08-24 01:20:00,74.7,70.2,29.97,West,277,0.0,0.0,86,0.00,,,0.00,VWS V14.01,2013-08-23 23:20:00,
2013-08-24 01:22:00,74.7,70.2,29.97,West,277,0.0,0.0,86,0.00,,,0.00,VWS V14.01,2013-08-23 23:22:00,
2013-08-24 01:27:00,74.7,70.2,29.97,West,277,0.0,0.0,86,0.00,,,0.00,VWS V14.01,2013-08-23 23:27:00,
2013-08-24 01:30:00,74.9,70.4,29.97,West,277,0.0,1.0,86,0.00,,,0.00,VWS V14.01,2013-08-23 23:30:00,
2013-08-24 01:32:00,74.8,70.3,29.97,West,277,0.0,0.0,86,0.00,,,0.00,VWS V14.01,2013-08-23 23:32:00,
2013-08-24 01:40:00,75.1,70.6,29.97,West,277,0.0,1.0,86,0.00,,,0.00,VWS V14.01,2013-08-23 23:40:00,
2013-08-24 01:42:00,75.0,70.5,29.97,West,277,0.0,1.0,86,0.00,,,0.00,VWS V14.01,2013-08-23 23:42:00,
2013-08-24 01:47:00,75.0,70.5,29.97,West,277,0.0,0.0,86,0.00,,,0.00,VWS V14.01,2013-08-23 23:47:00,
2013-08-24 01:50:00,75.1,70.6,29.96,West,277,0.0,0.0,86,0.00,,,0.00,VWS V14.01,2013-08-23 23:50:00,
2013-08-24 01:52:00,75.1,70.6,29.97,West,277,0.0,0.0,86,0.00,,,0.00,VWS V14.01,2013-08-23 23:52:00,
2013-08-24 01:57:00,75.2,70.7,29.97,West,277,0.0,0.0,86,0.00,,,0.00,VWS V14.01,2013-08-23 23:57:00,
2013-08-24 02:00:00,75.2,70.7,29.97,West,277,0.0,0.0,86,0.00,,,0.00,VWS V14.01,2013-08-24 00:00:00,
2013-08-24 02:02:00,75.3,70.8,29.97,West,277,0.0,0.0,86,0.00,,,0.00,VWS V14.01,2013-08-24 00:02:00,
2013-08-24 02:07:00,75.2,70.4,29.97,West,277,0.0,0.0,85,0.00,,,0.00,VWS V14.01,2013-08-24 00:07:00,
2013-08-24 02:10:00,75.1,70.6,29.97,West,277,0.0,1.0,86,0.00,,,0.00,VWS V14.01,2013-08-24 00:10:00,
2013-08-24 02:12:00,75.1,70.3,29.97,West,277,0.0,1.0,85,0.00,,,0.00,VWS V14.01,2013-08-24 00:12:00,
2013-08-24 02:17:00,75.1,70.6,29.97,West,277,0.0,0.0,86,0.00,,,0.00,VWS V14.01,2013-08-24 00:17:00,
2013-08-24 02:20:00,75.0,70.5,29.97,West,277,0.0,1.0,86,0.00,,,0.00,VWS V14.01,2013-08-24 00:20:00,
2013-08-24 02:22:00,75.1,70.6,29.97,West,277,0.0,1.0,86,0.00,,,0.00,VWS V14.01,2013-08-24 00:22:00,
2013-08-24 02:27:00,75.1,70.6,29.97,West,277,0.0,0.0,86,0.00,,,0.00,VWS V14.01,2013-08-24 00:27:00,
2013-08-24 02:30:00,75.1,70.6,29.97,West,277,0.0,1.0,86,0.00,,,0.00,VWS V14.01,2013-08-24 00:30:00,
2013-08-24 02:32:00,75.1,70.6,29.97,West,277,0.0,1.0,86,0.00,,,0.00,VWS V14.01,2013-08-24 00:32:00,
2013-08-24 02:37:00,75.2,70.7,29.97,West,277,0.0,0.0,86,0.00,,,0.00,VWS V14.01,2013-08-24 00:37:00,
2013-08-24 02:40:00,75.1,70.6,29.97,West,277,0.0,1.0,86,0.00,,,0.00,VWS V14.01,2013-08-24 00:40:00,
2013-08-24 02:42:00,75.2,70.7,29.97,West,277,0.0,0.0,86,0.00,,,0.00,VWS V14.01,2013-08-24 00:42:00,
2013-08-24 02:48:00,75.1,70.6,29.97,West,277,0.0,0.0,86,0.00,,,0.00,VWS V14.01,2013-08-24 00:48:00,
2013-08-24 02:50:00,75.2,70.7,29.96,West,277,0.0,2.0,86,0.00,,,0.00,VWS V14.01,2013-08-24 00:50:00,
2013-08-24 02:53:00,75.2,70.7,29.97,West,277,0.0,2.0,86,0.00,,,0.00,VWS V14.01,2013-08-24 00:53:00,
2013-08-24 02:58:00,75.2,70.7,29.96,West,277,0.0,0.0,86,0.00,,,0.00,VWS V14.01,2013-08-24 00:58:00,
2013-08-24 03:00:00,75.1,70.3,29.96,West,277,0.0,0.0,85,0.00,,,0.00,VWS V14.01,2013-08-24 01:00:00,
2013-08-24 03:03:00,75.2,70.7,29.96,West,277,0.0,0.0,86,0.00,,,0.00,VWS V14.01,2013-08-24 01:03:00,
2013-08-24 03:08:00,75.1,70.3,29.96,West,277,0.0,0.0,85,0.00,,,0.00,VWS V14.01,2013-08-24 01:08:00,
2013-08-24 03:10:00,74.8,70.3,29.96,West,277,0.0,0.0,86,0.00,,,0.00,VWS V14.01,2013-08-24 01:10:00,
2013-08-24 03:13:00,74.9,70.4,29.96,West,277,0.0,0.0,86,0.00,,,0.00,VWS V14.01,2013-08-24 01:13:00,
2013-08-24 03:18:00,74.7,70.2,29.96,West,277,0.0,1.0,86,0.00,,,0.00,VWS V14.01,2013-08-24 01:18:00,
2013-08-24 03:20:00,74.7,70.2,29.96,West,277,1.0,1.0,86,0.00,,,0.00,VWS V14.01,2013-08-24 01:20:00,
2013-08-24 03:23:00,74.8,70.3,29.96,West,277,0.0,1.0,86,0.00,,,0.00,VWS V14.01,2013-08-24 01:23:00,
2013-08-24 03:28:00,74.5,70.0,29.96,West,277,0.0,1.0,86,0.00,,,0.00,VWS V14.01,2013-08-24 01:28:00,
2013-08-24 03:30:00,74.6,70.5,29.96,West,277,0.0,3.0,87,0.00,,,0.00,VWS V14.01,2013-08-24 01:30:00,
2013-08-24 03:33:00,74.5,70.0,29.96,West,277,0.0,1.0,86,0.00,,,0.00,VWS V14.01,2013-08-24 01:33:00,
2013-08-24 03:38:00,74.5,70.0,29.96,West,277,1.0,1.0,86,0.00,,,0.00,VWS V14.01,2013-08-24 01:38:00,
2013-08-24 03:40:00,74.3,70.2,29.96,West,277,1.0,1.0,87,0.00,,,0.00,VWS V14.01,2013-08-24 01:40:00,
2013-08-24 03:43:00,74.3,69.8,29.96,West,277,1.0,1.0,86,0.00,,,0.00,VWS V14.01,2013-08-24 01:43:00,
2013-08-24 03:48:00,74.3,70.2,29.96,West,277,1.0,2.0,87,0.00,,,0.00,VWS V14.01,2013-08-24 01:48:00,
2013-08-24 03:50:00,74.3,69.8,29.96,West,277,0.0,2.0,86,0.00,,,0.00,VWS V14.01,2013-08-24 01:50:00,
2013-08-24 03:53:00,74.3,69.8,29.96,West,277,0.0,2.0,86,0.00,,,0.00,VWS V14.01,2013-08-24 01:53:00,
2013-08-24 03:58:00,74.4,69.9,29.95,West,277,0.0,0.0,86,0.00,,,0.00,VWS V14.01,2013-08-24 01:58:00,
2013-08-24 04:00:00,74.5,70.0,29.95,West,277,0.0,1.0,86,0.00,,,0.00,VWS V14.01,2013-08-24 02:00:00,
2013-08-24 04:03:00,74.5,70.0,29.96,West,277,0.0,0.0,86,0.00,,,0.00,VWS V14.01,2013-08-24 02:03:00,
2013-08-24 04:08:00,74.6,70.1,29.95,West,277,0.0,0.0,86,0.00,,,0.00,VWS V14.01,2013-08-24 02:08:00,
2013-08-24 04:10:00,74.8,70.3,29.95,West,277,0.0,1.0,86,0.00,,,0.00,VWS V14.01,2013-08-24 02:10:00,
2013-08-24 04:13:00,74.7,70.2,29.95,West,277,0.0,1.0,86,0.00,,,0.00,VWS V14.01,2013-08-24 02:13:00,
2013-08-24 04:18:00,74.8,70.3,29.95,West,277,0.0,0.0,86,0.00,,,0.00,VWS V14.01,2013-08-24 02:18:00,
2013-08-24 04:20:00,74.7,69.9,29.95,West,277,0.0,2.0,85,0.00,,,0.00,VWS V14.01,2013-08-24 02:20:00,
2013-08-24 04:23:00,74.7,69.9,29.95,West,277,1.0,1.0,85,0.00,,,0.00,VWS V14.01,2013-08-24 02:23:00,
2013-08-24 04:28:00,74.7,69.9,29.95,West,277,1.0,2.0,85,0.00,,,0.00,VWS V14.01,2013-08-24 02:28:00,
2013-08-24 04:30:00,74.8,70.0,29.95,West,277,0.0,3.0,85,0.00,,,0.00,VWS V14.01,2013-08-24 02:30:00,
2013-08-24 04:33:00,74.7,69.9,29.95,West,277,3.0,3.0,85,0.00,,,0.00,VWS V14.01,2013-08-24 02:33:00,
2013-08-24 04:38:00,74.8,70.0,29.95,West,277,0.0,0.0,85,0.00,,,0.00,VWS V14.01,2013-08-24 02:38:00,
2013-08-24 04:40:00,74.8,70.0,29.95,West,277,0.0,1.0,85,0.00,,,0.00,VWS V14.01,2013-08-24 02:40:00,
2013-08-24 04:43:00,74.8,70.0,29.95,West,277,0.0,0.0,85,0.00,,,0.00,VWS V14.01,2013-08-24 02:43:00,
2013-08-24 04:48:00,74.7,69.9,29.95,West,277,0.0,0.0,85,0.00,,,0.00,VWS V14.01,2013-08-24 02:48:00,
2013-08-24 04:50:00,74.7,69.9,29.95,West,277,1.0,1.0,85,0.00,,,0.00,VWS V14.01,2013-08-24 02:50:00,
2013-08-24 04:53:00,74.7,69.9,29.95,West,277,0.0,0.0,85,0.00,,,0.00,VWS V14.01,2013-08-24 02:53:00,
2013-08-24 04:58:00,74.8,69.7,29.95,West,277,0.0,1.0,84,0.00,,,0.00,VWS V14.01,2013-08-24 02:58:00,
2013-08-24 05:00:00,74.8,69.7,29.95,West,277,0.0,1.0,84,0.00,,,0.00,VWS V14.01,2013-08-24 03:00:00,
2013-08-24 05:03:00,74.8,69.7,29.95,West,277,0.0,1.0,84,0.00,,,0.00,VWS V14.01,2013-08-24 03:03:00,
2013-08-24 05:08:00,74.8,69.7,29.95,West,277,0.0,0.0,84,0.00,,,0.00,VWS V14.01,2013-08-24 03:08:00,
2013-08-24 05:10:00,74.8,69.7,29.95,West,277,0.0,0.0,84,0.00,,,0.00,VWS V14.01,2013-08-24 03:10:00,
2013-08-24 05:13:00,74.8,69.7,29.95,West,277,0.0,0.0,84,0.00,,,0.00,VWS V14.01,2013-08-24 03:13:00,
2013-08-24 05:18:00,74.8,69.7,29.95,West,277,0.0,0.0,84,0.00,,,0.00,VWS V14.01,2013-08-24 03:18:00,
2013-08-24 05:20:00,74.8,69.3,29.95,West,277,0.0,1.0,83,0.00,,,0.00,VWS V14.01,2013-08-24 03:20:00,
2013-08-24 05:24:00,74.8,69.3,29.95,West,277,0.0,0.0,83,0.00,,,0.00,VWS V14.01,2013-08-24 03:24:00,
2013-08-24 05:29:00,74.8,69.3,29.95,West,277,0.0,2.0,83,0.00,,,0.00,VWS V14.01,2013-08-24 03:29:00,
2013-08-24 05:30:00,74.8,69.3,29.94,West,277,0.0,2.0,83,0.00,,,0.00,VWS V14.01,2013-08-24 03:30:00,
2013-08-24 05:34:00,74.8,69.3,29.94,West,277,0.0,2.0,83,0.00,,,0.00,VWS V14.01,2013-08-24 03:34:00,
2013-08-24 05:39:00,74.8,69.3,29.94,West,277,0.0,1.0,83,0.00,,,0.00,VWS V14.01,2013-08-24 03:39:00,
2013-08-24 05:40:00,74.8,69.3,29.94,West,277,0.0,1.0,83,0.00,,,0.00,VWS V14.01,2013-08-24 03:40:00,
2013-08-24 05:44:00,74.8,69.3,29.94,West,277,0.0,1.0,83,0.00,,,0.00,VWS V14.01,2013-08-24 03:44:00,
2013-08-24 05:49:00,74.9,69.4,29.94,West,277,0.0,0.0,83,0.00,,,0.00,VWS V14.01,2013-08-24 03:49:00,
2013-08-24 05:50:00,74.9,69.4,29.94,West,277,0.0,0.0,83,0.00,,,0.00,VWS V14.01,2013-08-24 03:50:00,
2013-08-24 05:54:00,75.0,69.5,29.94,West,277,0.0,0.0,83,0.00,,,0.00,VWS V14.01,2013-08-24 03:54:00,
2013-08-24 05:59:00,75.0,69.5,29.95,West,277,0.0,0.0,83,0.00,,,0.00,VWS V14.01,2013-08-24 03:59:00,
2013-08-24 06:00:00,74.7,69.2,29.94,West,277,0.0,0.0,83,0.00,,,0.00,VWS V14.01,2013-08-24 04:00:00,
2013-08-24 06:01:00,74.9,69.4,29.95,West,277,0.0,0.0,83,0.00,,,0.00,VWS V14.01,2013-08-24 04:01:00,
2013-08-24 06:06:00,74.7,69.2,29.94,West,277,0.0,0.0,83,0.00,,,0.00,VWS V14.01,2013-08-24 04:06:00,
2013-08-24 06:10:00,74.6,69.1,29.94,West,277,0.0,1.0,83,0.00,,,0.00,VWS V14.01,2013-08-24 04:10:00,
2013-08-24 06:11:00,74.6,69.1,29.95,West,277,0.0,0.0,83,0.00,,,0.00,VWS V14.01,2013-08-24 04:11:00,
2013-08-24 06:16:00,74.6,69.1,29.94,West,277,0.0,0.0,83,0.00,,,0.00,VWS V14.01,2013-08-24 04:16:00,
2013-08-24 06:20:00,74.6,69.1,29.95,West,277,0.0,1.0,83,0.00,,,0.00,VWS V14.01,2013-08-24 04:20:00,
2013-08-24 06:21:00,74.7,69.2,29.95,West,277,0.0,0.0,83,0.00,,,0.00,VWS V14.01,2013-08-24 04:21:00,
2013-08-24 06:27:00,74.6,69.1,29.95,West,277,0.0,1.0,83,0.00,,,0.00,VWS V14.01,2013-08-24 04:27:00,
2013-08-24 06:30:00,74.7,69.6,29.94,West,277,0.0,2.0,84,0.00,,,0.00,VWS V14.01,2013-08-24 04:30:00,
2013-08-24 06:32:00,74.7,69.6,29.94,West,277,0.0,2.0,84,0.00,,,0.00,VWS V14.01,2013-08-24 04:32:00,
2013-08-24 06:37:00,74.7,69.6,29.95,West,277,0.0,0.0,84,0.00,,,0.00,VWS V14.01,2013-08-24 04:37:00,
2013-08-24 06:40:00,74.8,69.7,29.95,West,277,0.0,0.0,84,0.00,,,0.00,VWS V14.01,2013-08-24 04:40:00,
2013-08-24 06:42:00,74.7,69.6,29.95,West,277,0.0,0.0,84,0.00,,,0.00,VWS V14.01,2013-08-24 04:42:00,
2013-08-24 06:47:00,74.8,69.7,29.95,West,277,1.0,2.0,84,0.00,,,0.00,VWS V14.01,2013-08-24 04:47:00,
2013-08-24 06:50:00,74.9,69.7,29.95,West,277,0.0,2.0,84,0.00,,,0.00,VWS V14.01,2013-08-24 04:50:00,
2013-08-24 06:52:00,75.0,69.8,29.95,West,277,1.0,2.0,84,0.00,,,0.00,VWS V14.01,2013-08-24 04:52:00,
2013-08-24 06:56:00,74.9,69.7,29.95,West,277,0.0,0.0,84,0.00,,,0.00,VWS V14.01,2013-08-24 04:56:00,
2013-08-24 07:00:00,75.3,70.1,29.95,West,277,0.0,0.0,84,0.00,,,0.00,VWS V14.01,2013-08-24 05:00:00,
2013-08-24 07:02:00,75.1,69.9,29.95,West,277,0.0,0.0,84,0.00,,,0.00,VWS V14.01,2013-08-24 05:02:00,
2013-08-24 07:07:00,75.3,70.1,29.95,West,277,0.0,0.0,84,0.00,,,0.00,VWS V14.01,2013-08-24 05:07:00,
2013-08-24 07:10:00,75.8,70.3,29.95,West,277,0.0,0.0,83,0.00,,,0.00,VWS V14.01,2013-08-24 05:10:00,
2013-08-24 07:12:00,75.6,70.4,29.95,West,277,0.0,0.0,84,0.00,,,0.00,VWS V14.01,2013-08-24 05:12:00,
2013-08-24 07:17:00,75.9,70.4,29.95,West,277,0.0,0.0,83,0.00,,,0.00,VWS V14.01,2013-08-24 05:17:00,
2013-08-24 07:20:00,76.1,70.6,29.95,West,277,0.0,2.0,83,0.00,,,0.00,VWS V14.01,2013-08-24 05:20:00,
2013-08-24 07:22:00,76.1,70.6,29.95,West,277,0.0,0.0,83,0.00,,,0.00,VWS V14.01,2013-08-24 05:22:00,
2013-08-24 07:27:00,76.2,70.7,29.95,West,277,0.0,0.0,83,0.00,,,0.00,VWS V14.01,2013-08-24 05:27:00,
2013-08-24 07:30:00,76.3,70.8,29.95,West,277,0.0,2.0,83,0.00,,,0.00,VWS V14.01,2013-08-24 05:30:00,
2013-08-24 07:32:00,76.3,70.8,29.95,West,277,0.0,1.0,83,0.00,,,0.00,VWS V14.01,2013-08-24 05:32:00,
2013-08-24 07:37:00,76.3,70.8,29.95,West,277,2.0,3.0,83,0.00,,,0.00,VWS V14.01,2013-08-24 05:37:00,
2013-08-24 07:40:00,76.2,70.7,29.95,West,277,4.0,5.0,83,0.00,,,0.00,VWS V14.01,2013-08-24 05:40:00,
2013-08-24 07:42:00,76.2,70.7,29.95,West,277,2.0,5.0,83,0.00,,,0.00,VWS V14.01,2013-08-24 05:42:00,
2013-08-24 07:47:00,76.2,70.7,29.95,West,277,2.0,4.0,83,0.00,,,0.00,VWS V14.01,2013-08-24 05:47:00,
2013-08-24 07:50:00,76.3,70.8,29.95,West,277,3.0,6.0,83,0.00,,,0.00,VWS V14.01,2013-08-24 05:50:00,
2013-08-24 07:52:00,76.3,70.8,29.95,West,277,4.0,4.0,83,0.00,,,0.00,VWS V14.01,2013-08-24 05:52:00,
2013-08-24 07:57:00,76.3,70.8,29.95,West,277,2.0,3.0,83,0.00,,,0.00,VWS V14.01,2013-08-24 05:57:00,
2013-08-24 08:00:00,76.5,70.6,29.95,West,277,3.0,5.0,82,0.00,,,0.00,VWS V14.01,2013-08-24 06:00:00,
2013-08-24 08:02:00,76.5,70.6,29.95,West,277,5.0,5.0,82,0.00,,,0.00,VWS V14.01,2013-08-24 06:02:00,
2013-08-24 08:07:00,76.5,70.6,29.95,West,277,3.0,4.0,82,0.00,,,0.00,VWS V14.01,2013-08-24 06:07:00,
2013-08-24 08:10:00,76.8,70.9,29.95,West,277,4.0,5.0,82,0.00,,,0.00,VWS V14.01,2013-08-24 06:10:00,
2013-08-24 08:12:00,76.7,70.8,29.95,West,277,1.0,4.0,82,0.00,,,0.00,VWS V14.01,2013-08-24 06:12:00,
2013-08-24 08:17:00,76.8,70.9,29.95,West,277,5.0,5.0,82,0.00,,,0.00,VWS V14.01,2013-08-24 06:17:00,
2013-08-24 08:20:00,77.1,70.8,29.95,West,262,3.0,6.0,81,0.00,,,0.00,VWS V14.01,2013-08-24 06:20:00,
2013-08-24 08:22:00,77.0,71.1,29.95,West,269,3.0,6.0,82,0.00,,,0.00,VWS V14.01,2013-08-24 06:22:00,
2013-08-24 08:27:00,77.1,70.8,29.96,West,262,2.0,4.0,81,0.00,,,0.00,VWS V14.01,2013-08-24 06:27:00,
2013-08-24 08:30:00,77.3,70.7,29.96,WSW,251,5.0,8.0,80,0.00,,,0.00,VWS V14.01,2013-08-24 06:30:00,
2013-08-24 08:32:00,77.2,70.6,29.95,WSW,246,6.0,8.0,80,0.00,,,0.00,VWS V14.01,2013-08-24 06:32:00,
2013-08-24 08:37:00,77.3,70.7,29.96,West,264,5.0,8.0,80,0.00,,,0.00,VWS V14.01,2013-08-24 06:37:00,
2013-08-24 08:40:00,77.2,70.2,29.95,WSW,254,3.0,8.0,79,0.00,,,0.00,VWS V14.01,2013-08-24 06:40:00,
2013-08-24 08:42:00,77.2,70.6,29.96,WSW,248,5.0,8.0,80,0.00,,,0.00,VWS V14.01,2013-08-24 06:42:00,
2013-08-24 08:47:00,77.3,70.3,29.95,WSW,254,4.0,4.0,79,0.00,,,0.00,VWS V14.01,2013-08-24 06:47:00,
2013-08-24 08:50:00,77.6,70.2,29.96,WSW,246,3.0,8.0,78,0.00,,,0.00,VWS V14.01,2013-08-24 06:50:00,
2013-08-24 08:52:00,77.6,70.6,29.96,WSW,246,3.0,8.0,79,0.00,,,0.00,VWS V14.01,2013-08-24 06:52:00,
2013-08-24 08:57:00,77.7,70.3,29.96,WSW,248,4.0,4.0,78,0.00,,,0.00,VWS V14.01,2013-08-24 06:57:00,
2013-08-24 09:00:00,77.9,70.1,29.96,WSW,246,5.0,7.0,77,0.00,,,0.00,VWS V14.01,2013-08-24 07:00:00,
2013-08-24 09:02:00,78.0,70.6,29.96,WSW,241,7.0,7.0,78,0.00,,,0.00,VWS V14.01,2013-08-24 07:02:00,
2013-08-24 09:07:00,77.9,70.1,29.96,WSW,247,3.0,4.0,77,0.00,,,0.00,VWS V14.01,2013-08-24 07:07:00,
2013-08-24 09:10:00,77.9,69.3,29.96,SW,231,7.0,7.0,75,0.00,,,0.00,VWS V14.01,2013-08-24 07:10:00,
2013-08-24 09:12:00,77.6,69.1,29.96,SW,229,4.0,7.0,75,0.00,,,0.00,VWS V14.01,2013-08-24 07:12:00,
2013-08-24 09:17:00,78.1,69.5,29.96,WSW,237,3.0,8.0,75,0.00,,,0.00,VWS V14.01,2013-08-24 07:17:00,
2013-08-24 09:20:00,78.3,69.3,29.96,SSW,209,4.0,8.0,74,0.00,,,0.00,VWS V14.01,2013-08-24 07:20:00,
2013-08-24 09:22:00,78.3,69.7,29.96,SW,235,3.0,8.0,75,0.00,,,0.00,VWS V14.01,2013-08-24 07:22:00,
2013-08-24 09:27:00,78.2,68.8,29.96,SW,226,5.0,6.0,73,0.00,,,0.00,VWS V14.01,2013-08-24 07:27:00,
2013-08-24 09:30:00,78.4,69.8,29.97,SSW,193,1.0,7.0,75,0.00,,,0.00,VWS V14.01,2013-08-24 07:30:00,
2013-08-24 09:32:00,78.2,69.6,29.97,SSW,198,4.0,7.0,75,0.00,,,0.00,VWS V14.01,2013-08-24 07:32:00,
2013-08-24 09:37:00,78.5,69.9,29.97,SSW,196,4.0,5.0,75,0.00,,,0.00,VWS V14.01,2013-08-24 07:37:00,
2013-08-24 09:40:00,78.8,69.8,29.97,WSW,250,7.0,9.0,74,0.00,,,0.00,VWS V14.01,2013-08-24 07:40:00,
2013-08-24 09:42:00,78.9,70.3,29.97,SSW,202,3.0,5.0,75,0.00,,,0.00,VWS V14.01,2013-08-24 07:42:00,
2013-08-24 09:47:00,78.7,70.1,29.97,West,271,5.0,7.0,75,0.00,,,0.00,VWS V14.01,2013-08-24 07:47:00,
2013-08-24 09:50:00,78.5,70.7,29.97,WSW,258,5.0,10.0,77,0.00,,,0.00,VWS V14.01,2013-08-24 07:50:00,
2013-08-24 09:52:00,78.3,70.1,29.97,West,259,5.0,9.0,76,0.00,,,0.00,VWS V14.01,2013-08-24 07:52:00,
2013-08-24 09:57:00,78.6,70.8,29.97,WSW,257,4.0,9.0,77,0.00,,,0.00,VWS V14.01,2013-08-24 07:57:00,
2013-08-24 10:00:00,78.7,70.5,29.97,WNW,294,4.0,10.0,76,0.00,,,0.00,VWS V14.01,2013-08-24 08:00:00,
2013-08-24 10:02:00,78.7,70.5,29.97,West,277,5.0,10.0,76,0.00,,,0.00,VWS V14.01,2013-08-24 08:02:00,
2013-08-24 10:07:00,78.7,70.5,29.97,WSW,250,5.0,6.0,76,0.00,,,0.00,VWS V14.01,2013-08-24 08:07:00,
2013-08-24 10:10:00,78.7,70.1,29.97,West,265,5.0,10.0,75,0.00,,,0.00,VWS V14.01,2013-08-24 08:10:00,
2013-08-24 10:12:00,78.8,70.6,29.97,WSW,240,6.0,8.0,76,0.00,,,0.00,VWS V14.01,2013-08-24 08:12:00,
2013-08-24 10:17:00,78.7,70.1,29.97,WSW,252,10.0,10.0,75,0.00,,,0.00,VWS V14.01,2013-08-24 08:17:00,
2013-08-24 10:20:00,78.9,69.9,29.97,SW,234,7.0,12.0,74,0.00,,,0.00,VWS V14.01,2013-08-24 08:20:00,
2013-08-24 10:22:00,79.1,70.5,29.97,West,259,8.0,10.0,75,0.00,,,0.00,VWS V14.01,2013-08-24 08:22:00,
2013-08-24 10:28:00,78.8,69.8,29.97,WSW,244,4.0,8.0,74,0.00,,,0.00,VWS V14.01,2013-08-24 08:28:00,
2013-08-24 10:30:00,79.5,70.5,29.97,WSW,245,7.0,9.0,74,0.00,,,0.00,VWS V14.01,2013-08-24 08:30:00,
2013-08-24 10:33:00,79.4,70.8,29.97,West,261,1.0,9.0,75,0.00,,,0.00,VWS V14.01,2013-08-24 08:33:00,
2013-08-24 10:38:00,79.1,70.1,29.97,West,267,6.0,9.0,74,0.00,,,0.00,VWS V14.01,2013-08-24 08:38:00,
2013-08-24 10:40:00,79.5,69.7,29.97,West,261,11.0,11.0,72,0.00,,,0.00,VWS V14.01,2013-08-24 08:40:00,
2013-08-24 10:43:00,79.0,69.6,29.97,WNW,289,7.0,11.0,73,0.00,,,0.00,VWS V14.01,2013-08-24 08:43:00,
2013-08-24 10:48:00,79.4,69.6,29.97,West,277,4.0,10.0,72,0.00,,,0.00,VWS V14.01,2013-08-24 08:48:00,
2013-08-24 10:50:00,79.6,69.0,29.97,West,262,5.0,10.0,70,0.00,,,0.00,VWS V14.01,2013-08-24 08:50:00,
2013-08-24 10:53:00,79.9,69.2,29.97,WSW,247,4.0,10.0,70,0.00,,,0.00,VWS V14.01,2013-08-24 08:53:00,
2013-08-24 10:58:00,79.9,69.2,29.96,West,277,4.0,8.0,70,0.00,,,0.00,VWS V14.01,2013-08-24 08:58:00,
2013-08-24 11:00:00,79.7,68.2,29.97,West,261,5.0,10.0,68,0.00,,,0.00,VWS V14.01,2013-08-24 09:00:00,
2013-08-24 11:03:00,79.9,68.4,29.97,West,261,8.0,10.0,68,0.00,,,0.00,VWS V14.01,2013-08-24 09:03:00,
2013-08-24 11:08:00,79.9,68.8,29.97,WSW,250,8.0,8.0,69,0.00,,,0.00,VWS V14.01,2013-08-24 09:08:00,
2013-08-24 11:10:00,80.0,68.9,29.97,WSW,255,6.0,9.0,69,0.00,,,0.00,VWS V14.01,2013-08-24 09:10:00,
2013-08-24 11:13:00,79.9,68.8,29.97,West,262,6.0,9.0,69,0.00,,,0.00,VWS V14.01,2013-08-24 09:13:00,
2013-08-24 11:18:00,80.0,69.3,29.97,SW,236,7.0,8.0,70,0.00,,,0.00,VWS V14.01,2013-08-24 09:18:00,
2013-08-24 11:20:00,79.5,69.3,29.97,WNW,284,5.0,11.0,71,0.00,,,0.00,VWS V14.01,2013-08-24 09:20:00,
2013-08-24 11:23:00,79.7,69.1,29.97,WSW,242,1.0,9.0,70,0.00,,,0.00,VWS V14.01,2013-08-24 09:23:00,
2013-08-24 11:28:00,79.7,69.1,29.97,West,267,8.0,11.0,70,0.00,,,0.00,VWS V14.01,2013-08-24 09:28:00,
2013-08-24 11:30:00,80.0,69.3,29.97,West,270,9.0,11.0,70,0.00,,,0.00,VWS V14.01,2013-08-24 09:30:00,
2013-08-24 11:33:00,79.7,69.1,29.97,WNW,288,7.0,11.0,70,0.00,,,0.00,VWS V14.01,2013-08-24 09:33:00,
2013-08-24 11:38:00,79.9,68.4,29.97,WSW,252,8.0,11.0,68,0.00,,,0.00,VWS V14.01,2013-08-24 09:38:00,
2013-08-24 11:40:00,80.3,68.8,29.97,West,260,7.0,11.0,68,0.00,,,0.00,VWS V14.01,2013-08-24 09:40:00,
2013-08-24 11:43:00,80.1,68.2,29.97,SW,223,3.0,11.0,67,0.00,,,0.00,VWS V14.01,2013-08-24 09:43:00,
2013-08-24 11:48:00,80.2,68.3,29.97,SW,223,10.0,12.0,67,0.00,,,0.00,VWS V14.01,2013-08-24 09:48:00,
2013-08-24 11:50:00,80.2,68.7,29.97,West,267,7.0,12.0,68,0.00,,,0.00,VWS V14.01,2013-08-24 09:50:00,
2013-08-24 11:53:00,79.8,68.3,29.97,WSW,251,6.0,12.0,68,0.00,,,0.00,VWS V14.01,2013-08-24 09:53:00,
2013-08-24 11:58:00,80.1,68.6,29.97,West,276,9.0,9.0,68,0.00,,,0.00,VWS V14.01,2013-08-24 09:58:00,
2013-08-24 12:00:00,80.1,69.0,29.97,WSW,242,4.0,10.0,69,0.00,,,0.00,VWS V14.01,2013-08-24 10:00:00,
2013-08-24 12:03:00,79.5,68.4,29.97,West,261,4.0,9.0,69,0.00,,,0.00,VWS V14.01,2013-08-24 10:03:00,
2013-08-24 12:08:00,80.2,68.3,29.97,West,265,6.0,10.0,67,0.00,,,0.00,VWS V14.01,2013-08-24 10:08:00,
2013-08-24 12:10:00,80.3,68.3,29.97,WSW,258,10.0,11.0,67,0.00,,,0.00,VWS V14.01,2013-08-24 10:10:00,
2013-08-24 12:13:00,80.3,67.9,29.97,West,272,5.0,10.0,66,0.00,,,0.00,VWS V14.01,2013-08-24 10:13:00,
2013-08-24 12:18:00,79.9,68.4,29.97,West,275,7.0,10.0,68,0.00,,,0.00,VWS V14.01,2013-08-24 10:18:00,
2013-08-24 12:20:00,80.6,67.8,29.96,West,268,7.0,10.0,65,0.00,,,0.00,VWS V14.01,2013-08-24 10:20:00,
2013-08-24 12:23:00,80.3,67.5,29.96,West,259,9.0,10.0,65,0.00,,,0.00,VWS V14.01,2013-08-24 10:23:00,
2013-08-24 12:28:00,80.6,67.8,29.96,WNW,285,9.0,12.0,65,0.00,,,0.00,VWS V14.01,2013-08-24 10:28:00,
2013-08-24 12:30:00,80.5,67.7,29.96,West,259,7.0,12.0,65,0.00,,,0.00,VWS V14.01,2013-08-24 10:30:00,
2013-08-24 12:33:00,80.3,67.9,29.97,West,275,4.0,12.0,66,0.00,,,0.00,VWS V14.01,2013-08-24 10:33:00,
2013-08-24 12:38:00,80.8,67.9,29.96,West,260,7.0,10.0,65,0.00,,,0.00,VWS V14.01,2013-08-24 10:38:00,
2013-08-24 12:40:00,80.5,68.1,29.96,WSW,244,8.0,12.0,66,0.00,,,0.00,VWS V14.01,2013-08-24 10:40:00,
2013-08-24 12:43:00,81.1,68.2,29.96,WSW,247,5.0,10.0,65,0.00,,,0.00,VWS V14.01,2013-08-24 10:43:00,
2013-08-24 12:48:00,80.8,68.4,29.96,WSW,240,9.0,9.0,66,0.00,,,0.00,VWS V14.01,2013-08-24 10:48:00,
2013-08-24 12:50:00,80.5,69.0,29.96,West,269,6.0,11.0,68,0.00,,,0.00,VWS V14.01,2013-08-24 10:50:00,
2013-08-24 12:53:00,80.6,68.2,29.96,West,266,10.0,10.0,66,0.00,,,0.00,VWS V14.01,2013-08-24 10:53:00,
2013-08-24 12:58:00,80.5,68.5,29.96,WSW,242,9.0,10.0,67,0.00,,,0.00,VWS V14.01,2013-08-24 10:58:00,
2013-08-24 13:00:00,80.8,68.8,29.95,SW,227,9.0,10.0,67,0.00,,,0.00,VWS V14.01,2013-08-24 11:00:00,
2013-08-24 13:03:00,80.5,68.5,29.96,WSW,240,8.0,10.0,67,0.00,,,0.00,VWS V14.01,2013-08-24 11:03:00,
2013-08-24 13:08:00,81.0,68.6,29.96,West,271,5.0,10.0,66,0.00,,,0.00,VWS V14.01,2013-08-24 11:08:00,
2013-08-24 13:10:00,80.8,68.4,29.95,WSW,257,4.0,11.0,66,0.00,,,0.00,VWS V14.01,2013-08-24 11:10:00,
2013-08-24 13:13:00,80.5,67.7,29.95,WSW,250,5.0,10.0,65,0.00,,,0.00,VWS V14.01,2013-08-24 11:13:00,
2013-08-24 13:18:00,80.7,68.7,29.95,WNW,288,8.0,12.0,67,0.00,,,0.00,VWS V14.01,2013-08-24 11:18:00,
2013-08-24 13:20:00,79.8,70.0,29.95,SSW,201,6.0,12.0,72,0.00,,,0.00,VWS V14.01,2013-08-24 11:20:00,
2013-08-24 13:23:00,80.0,69.8,29.95,WSW,238,9.0,12.0,71,0.00,,,0.00,VWS V14.01,2013-08-24 11:23:00,
2013-08-24 13:28:00,79.9,70.5,29.95,SW,234,8.0,12.0,73,0.00,,,0.00,VWS V14.01,2013-08-24 11:28:00,
2013-08-24 13:30:00,80.5,69.8,29.95,WNW,290,7.0,12.0,70,0.00,,,0.00,VWS V14.01,2013-08-24 11:30:00,
2013-08-24 13:33:00,80.1,70.7,29.95,SW,221,8.0,12.0,73,0.00,,,0.00,VWS V14.01,2013-08-24 11:33:00,
2013-08-24 13:38:00,80.7,69.6,29.95,WSW,248,7.0,11.0,69,0.00,,,0.00,VWS V14.01,2013-08-24 11:38:00,
2013-08-24 13:40:00,80.6,70.3,29.95,SW,218,8.0,12.0,71,0.00,,,0.00,VWS V14.01,2013-08-24 11:40:00,
2013-08-24 13:43:00,80.6,70.3,29.95,SW,217,8.0,12.0,71,0.00,,,0.00,VWS V14.01,2013-08-24 11:43:00,
2013-08-24 13:48:00,80.3,70.1,29.95,SW,218,9.0,10.0,71,0.00,,,0.00,VWS V14.01,2013-08-24 11:48:00,
2013-08-24 13:50:00,81.6,69.6,29.95,SW,224,11.0,15.0,67,0.00,,,0.00,VWS V14.01,2013-08-24 11:50:00,
2013-08-24 13:53:00,80.9,69.8,29.95,WSW,246,7.0,10.0,69,0.00,,,0.00,VWS V14.01,2013-08-24 11:53:00,
2013-08-24 13:58:00,80.8,70.1,29.95,WSW,246,7.0,13.0,70,0.00,,,0.00,VWS V14.01,2013-08-24 11:58:00,
2013-08-24 14:00:00,79.7,69.9,29.95,WSW,247,6.0,13.0,72,0.00,,,0.00,VWS V14.01,2013-08-24 12:00:00,
2013-08-24 14:03:00,80.1,69.9,29.95,SW,230,11.0,13.0,71,0.00,,,0.00,VWS V14.01,2013-08-24 12:03:00,
2013-08-24 14:08:00,79.5,69.7,29.95,WSW,240,7.0,9.0,72,0.00,,,0.00,VWS V14.01,2013-08-24 12:08:00,
2013-08-24 14:10:00,80.4,70.1,29.95,SW,225,6.0,12.0,71,0.00,,,0.00,VWS V14.01,2013-08-24 12:10:00,
2013-08-24 14:13:00,80.4,70.1,29.95,SW,230,9.0,11.0,71,0.00,,,0.00,VWS V14.01,2013-08-24 12:13:00,
2013-08-24 14:18:00,80.7,70.4,29.95,WSW,255,10.0,10.0,71,0.00,,,0.00,VWS V14.01,2013-08-24 12:18:00,
2013-08-24 14:20:00,80.5,69.4,29.95,West,280,5.0,11.0,69,0.00,,,0.00,VWS V14.01,2013-08-24 12:20:00,
2013-08-24 14:23:00,80.5,69.4,29.95,WSW,245,10.0,11.0,69,0.00,,,0.00,VWS V14.01,2013-08-24 12:23:00,
2013-08-24 14:28:00,80.4,69.3,29.95,WSW,239,10.0,13.0,69,0.00,,,0.00,VWS V14.01,2013-08-24 12:28:00,
2013-08-24 14:30:00,80.9,69.4,29.95,SW,228,8.0,13.0,68,0.00,,,0.00,VWS V14.01,2013-08-24 12:30:00,
2013-08-24 14:33:00,81.0,69.4,29.94,WSW,247,5.0,13.0,68,0.00,,,0.00,VWS V14.01,2013-08-24 12:33:00,
2013-08-24 14:38:00,80.6,69.1,29.95,West,260,9.0,12.0,68,0.00,,,0.00,VWS V14.01,2013-08-24 12:38:00,
2013-08-24 14:40:00,80.6,69.1,29.94,WSW,250,8.0,12.0,68,0.00,,,0.00,VWS V14.01,2013-08-24 12:40:00,
2013-08-24 14:43:00,80.5,69.4,29.94,West,259,7.0,12.0,69,0.00,,,0.00,VWS V14.01,2013-08-24 12:43:00,
2013-08-24 14:48:00,80.6,69.5,29.94,WSW,248,6.0,9.0,69,0.00,,,0.00,VWS V14.01,2013-08-24 12:48:00,
2013-08-24 14:50:00,80.3,69.6,29.94,WSW,242,6.0,13.0,70,0.00,,,0.00,VWS V14.01,2013-08-24 12:50:00,
2013-08-24 14:53:00,80.4,69.3,29.94,WSW,258,8.0,13.0,69,0.00,,,0.00,VWS V14.01,2013-08-24 12:53:00,
2013-08-24 14:58:00,80.3,68.8,29.94,SW,232,8.0,11.0,68,0.00,,,0.00,VWS V14.01,2013-08-24 12:58:00,
2013-08-24 15:00:00,79.9,67.1,29.94,SSE,165,7.0,11.0,65,0.00,,,0.00,VWS V14.01,2013-08-24 13:00:00,
2013-08-24 15:03:00,80.3,68.3,29.94,SW,223,7.0,11.0,67,0.00,,,0.00,VWS V14.01,2013-08-24 13:03:00,
2013-08-24 15:08:00,80.2,68.3,29.94,West,267,3.0,10.0,67,0.00,,,0.00,VWS V14.01,2013-08-24 13:08:00,
2013-08-24 15:10:00,80.2,68.7,29.94,WSW,247,10.0,11.0,68,0.00,,,0.00,VWS V14.01,2013-08-24 13:10:00,
2013-08-24 15:13:00,80.6,69.1,29.94,WSW,250,10.0,10.0,68,0.00,,,0.00,VWS V14.01,2013-08-24 13:13:00,
2013-08-24 15:18:00,80.5,69.4,29.94,SW,233,10.0,10.0,69,0.00,,,0.00,VWS V14.01,2013-08-24 13:18:00,
2013-08-24 15:20:00,80.7,69.6,29.94,SW,233,8.0,12.0,69,0.00,,,0.00,VWS V14.01,2013-08-24 13:20:00,
2013-08-24 15:23:00,80.7,69.6,29.94,WSW,251,7.0,12.0,69,0.00,,,0.00,VWS V14.01,2013-08-24 13:23:00,
2013-08-24 15:28:00,81.0,69.9,29.94,SW,231,5.0,8.0,69,0.00,,,0.00,VWS V14.01,2013-08-24 13:28:00,
2013-08-24 15:30:00,80.8,69.7,29.94,SW,220,6.0,12.0,69,0.00,,,0.00,VWS V14.01,2013-08-24 13:30:00,
2013-08-24 15:33:00,80.8,69.3,29.94,SW,226,5.0,12.0,68,0.00,,,0.00,VWS V14.01,2013-08-24 13:33:00,
2013-08-24 15:38:00,80.8,69.7,29.94,WSW,237,9.0,11.0,69,0.00,,,0.00,VWS V14.01,2013-08-24 13:38:00,
2013-08-24 15:40:00,81.0,69.9,29.93,SW,236,7.0,12.0,69,0.00,,,0.00,VWS V14.01,2013-08-24 13:40:00,
2013-08-24 15:43:00,80.8,69.7,29.94,SSW,193,4.0,12.0,69,0.00,,,0.00,VWS V14.01,2013-08-24 13:43:00,
2013-08-24 15:48:00,81.1,70.0,29.93,WSW,249,9.0,11.0,69,0.00,,,0.00,VWS V14.01,2013-08-24 13:48:00,
2013-08-24 15:50:00,81.1,69.1,29.93,West,273,7.0,12.0,67,0.00,,,0.00,VWS V14.01,2013-08-24 13:50:00,
2013-08-24 15:53:00,80.5,69.0,29.93,WSW,244,9.0,12.0,68,0.00,,,0.00,VWS V14.01,2013-08-24 13:53:00,
2013-08-24 15:58:00,81.1,69.1,29.93,WSW,242,6.0,9.0,67,0.00,,,0.00,VWS V14.01,2013-08-24 13:58:00,
2013-08-24 16:00:00,81.3,64.6,29.93,West,281,10.0,10.0,57,0.00,,,0.00,VWS V14.01,2013-08-24 14:00:00,
2013-08-24 16:03:00,81.0,66.8,29.93,WNW,292,6.0,9.0,62,0.00,,,0.00,VWS V14.01,2013-08-24 14:03:00,
2013-08-24 16:08:00,81.6,64.9,29.93,West,267,10.0,10.0,57,0.00,,,0.00,VWS V14.01,2013-08-24 14:08:00,
2013-08-24 16:10:00,81.8,63.5,29.93,WSW,246,6.0,10.0,54,0.00,,,0.00,VWS V14.01,2013-08-24 14:10:00,
2013-08-24 16:13:00,82.1,63.8,29.93,WSW,238,9.0,10.0,54,0.00,,,0.00,VWS V14.01,2013-08-24 14:13:00,
2013-08-24 16:18:00,82.0,64.3,29.93,West,269,8.0,11.0,55,0.00,,,0.00,VWS V14.01,2013-08-24 14:18:00,
2013-08-24 16:20:00,81.4,65.2,29.92,West,260,6.0,11.0,58,0.00,,,0.00,VWS V14.01,2013-08-24 14:20:00,
2013-08-24 16:23:00,81.5,65.3,29.93,WNW,284,8.0,11.0,58,0.00,,,0.00,VWS V14.01,2013-08-24 14:23:00,
2013-08-24 16:28:00,81.2,63.5,29.93,West,259,9.0,10.0,55,0.00,,,0.00,VWS V14.01,2013-08-24 14:28:00,
2013-08-24 16:30:00,81.5,65.8,29.92,West,261,6.0,11.0,59,0.00,,,0.00,VWS V14.01,2013-08-24 14:30:00,
2013-08-24 16:33:00,81.5,65.3,29.92,WSW,258,8.0,11.0,58,0.00,,,0.00,VWS V14.01,2013-08-24 14:33:00,
2013-08-24 16:38:00,81.7,66.0,29.92,West,266,8.0,10.0,59,0.00,,,0.00,VWS V14.01,2013-08-24 14:38:00,
2013-08-24 16:40:00,81.6,66.4,29.92,WNW,282,9.0,12.0,60,0.00,,,0.00,VWS V14.01,2013-08-24 14:40:00,
2013-08-24 16:43:00,81.6,65.9,29.92,WSW,244,6.0,11.0,59,0.00,,,0.00,VWS V14.01,2013-08-24 14:43:00,
2013-08-24 16:48:00,81.7,67.4,29.92,West,266,6.0,10.0,62,0.00,,,0.00,VWS V14.01,2013-08-24 14:48:00,
2013-08-24 16:50:00,81.6,67.3,29.91,WNW,291,2.0,11.0,62,0.00,,,0.00,VWS V14.01,2013-08-24 14:50:00,
2013-08-24 16:53:00,81.6,66.9,29.91,WSW,252,8.0,11.0,61,0.00,,,0.00,VWS V14.01,2013-08-24 14:53:00,
2013-08-24 16:58:00,81.5,67.2,29.91,West,267,7.0,11.0,62,0.00,,,0.00,VWS V14.01,2013-08-24 14:58:00,
2013-08-24 17:00:00,81.3,67.1,29.92,WSW,246,7.0,13.0,62,0.00,,,0.00,VWS V14.01,2013-08-24 15:00:00,
2013-08-24 17:03:00,81.4,67.6,29.92,West,280,7.0,11.0,63,0.00,,,0.00,VWS V14.01,2013-08-24 15:03:00,
2013-08-24 17:08:00,81.0,67.2,29.91,West,265,12.0,12.0,63,0.00,,,0.00,VWS V14.01,2013-08-24 15:08:00,
2013-08-24 17:10:00,81.3,68.4,29.91,WSW,251,5.0,12.0,65,0.00,,,0.00,VWS V14.01,2013-08-24 15:10:00,
2013-08-24 17:13:00,81.1,68.2,29.91,WSW,248,6.0,12.0,65,0.00,,,0.00,VWS V14.01,2013-08-24 15:13:00,
2013-08-24 17:18:00,81.5,68.6,29.91,WSW,258,8.0,9.0,65,0.00,,,0.00,VWS V14.01,2013-08-24 15:18:00,
2013-08-24 17:20:00,80.1,67.7,29.91,SW,219,11.0,13.0,66,0.00,,,0.00,VWS V14.01,2013-08-24 15:20:00,
2013-08-24 17:23:00,80.4,68.0,29.91,WSW,240,10.0,13.0,66,0.00,,,0.00,VWS V14.01,2013-08-24 15:23:00,
2013-08-24 17:28:00,80.2,67.4,29.91,SW,228,12.0,13.0,65,0.00,,,0.00,VWS V14.01,2013-08-24 15:28:00,
2013-08-24 17:30:00,80.6,67.8,29.91,WSW,257,10.0,13.0,65,0.00,,,0.00,VWS V14.01,2013-08-24 15:30:00,
2013-08-24 17:33:00,80.5,67.7,29.91,West,266,9.0,13.0,65,0.00,,,0.00,VWS V14.01,2013-08-24 15:33:00,
2013-08-24 17:38:00,80.3,67.0,29.91,WSW,245,8.0,11.0,64,0.00,,,0.00,VWS V14.01,2013-08-24 15:38:00,
2013-08-24 17:40:00,80.3,67.9,29.91,SW,225,11.0,12.0,66,0.00,,,0.00,VWS V14.01,2013-08-24 15:40:00,
2013-08-24 17:43:00,80.4,67.6,29.91,SW,235,11.0,12.0,65,0.00,,,0.00,VWS V14.01,2013-08-24 15:43:00,
2013-08-24 17:48:00,80.2,67.8,29.91,WSW,242,8.0,11.0,66,0.00,,,0.00,VWS V14.01,2013-08-24 15:48:00,
2013-08-24 17:50:00,80.4,68.4,29.91,West,264,9.0,13.0,67,0.00,,,0.00,VWS V14.01,2013-08-24 15:50:00,
2013-08-24 17:54:00,80.1,68.2,29.91,SSW,204,7.0,13.0,67,0.00,,,0.00,VWS V14.01,2013-08-24 15:54:00,
2013-08-24 17:59:00,80.5,68.1,29.91,West,277,3.0,10.0,66,0.00,,,0.00,VWS V14.01,2013-08-24 15:59:00,
2013-08-24 18:00:00,80.9,68.0,29.90,West,267,6.0,12.0,65,0.00,,,0.00,VWS V14.01,2013-08-24 16:00:00,
2013-08-24 18:04:00,80.8,67.9,29.90,WSW,250,5.0,12.0,65,0.00,,,0.00,VWS V14.01,2013-08-24 16:04:00,
2013-08-24 18:09:00,80.8,67.5,29.90,West,263,6.0,10.0,64,0.00,,,0.00,VWS V14.01,2013-08-24 16:09:00,
2013-08-24 18:10:00,80.8,67.5,29.90,West,281,2.0,10.0,64,0.00,,,0.00,VWS V14.01,2013-08-24 16:10:00,
2013-08-24 18:14:00,80.7,67.4,29.90,West,262,2.0,10.0,64,0.00,,,0.00,VWS V14.01,2013-08-24 16:14:00,
2013-08-24 18:19:00,80.7,66.5,29.90,West,269,7.0,9.0,62,0.00,,,0.00,VWS V14.01,2013-08-24 16:19:00,
2013-08-24 18:20:00,80.6,67.8,29.90,West,263,3.0,10.0,65,0.00,,,0.00,VWS V14.01,2013-08-24 16:20:00,
2013-08-24 18:24:00,80.7,67.4,29.90,WSW,258,6.0,10.0,64,0.00,,,0.00,VWS V14.01,2013-08-24 16:24:00,
2013-08-24 18:29:00,80.7,67.8,29.90,WNW,283,1.0,8.0,65,0.00,,,0.00,VWS V14.01,2013-08-24 16:29:00,
2013-08-24 18:30:00,80.0,67.6,29.90,WNW,297,6.0,9.0,66,0.00,,,0.00,VWS V14.01,2013-08-24 16:30:00,
2013-08-24 18:34:00,80.1,67.7,29.90,West,279,7.0,9.0,66,0.00,,,0.00,VWS V14.01,2013-08-24 16:34:00,
2013-08-24 18:39:00,80.1,68.2,29.90,WSW,238,6.0,8.0,67,0.00,,,0.00,VWS V14.01,2013-08-24 16:39:00,
2013-08-24 18:40:00,79.9,68.0,29.89,WNW,287,8.0,14.0,67,0.00,,,0.00,VWS V14.01,2013-08-24 16:40:00,
2013-08-24 18:44:00,80.2,68.3,29.90,WSW,238,11.0,11.0,67,0.00,,,0.00,VWS V14.01,2013-08-24 16:44:00,
2013-08-24 18:49:00,79.6,67.7,29.90,WNW,284,9.0,14.0,67,0.00,,,0.00,VWS V14.01,2013-08-24 16:49:00,
2013-08-24 18:50:00,79.8,68.3,29.90,WSW,242,5.0,14.0,68,0.00,,,0.00,VWS V14.01,2013-08-24 16:50:00,
2013-08-24 18:54:00,79.8,68.3,29.90,West,269,8.0,14.0,68,0.00,,,0.00,VWS V14.01,2013-08-24 16:54:00,
2013-08-24 18:59:00,79.7,68.2,29.90,SW,234,3.0,10.0,68,0.00,,,0.00,VWS V14.01,2013-08-24 16:59:00,
2013-08-24 19:00:00,79.4,67.9,29.90,WNW,290,6.0,11.0,68,0.00,,,0.00,VWS V14.01,2013-08-24 17:00:00,
2013-08-24 19:04:00,79.4,67.9,29.90,West,281,5.0,10.0,68,0.00,,,0.00,VWS V14.01,2013-08-24 17:04:00,
2013-08-24 19:09:00,79.2,68.2,29.90,West,279,4.0,11.0,69,0.00,,,0.00,VWS V14.01,2013-08-24 17:09:00,
2013-08-24 19:10:00,79.0,68.4,29.90,West,259,6.0,11.0,70,0.00,,,0.00,VWS V14.01,2013-08-24 17:10:00,
2013-08-24 19:14:00,79.0,68.4,29.90,West,263,6.0,11.0,70,0.00,,,0.00,VWS V14.01,2013-08-24 17:14:00,
2013-08-24 19:19:00,78.9,68.7,29.90,West,279,6.0,9.0,71,0.00,,,0.00,VWS V14.01,2013-08-24 17:19:00,
2013-08-24 19:20:00,78.7,68.9,29.90,WNW,292,7.0,9.0,72,0.00,,,0.00,VWS V14.01,2013-08-24 17:20:00,
2013-08-24 19:24:00,78.7,68.9,29.90,West,260,4.0,9.0,72,0.00,,,0.00,VWS V14.01,2013-08-24 17:24:00,
2013-08-24 19:30:00,78.6,69.2,29.90,West,266,2.0,10.0,73,0.00,,,0.00,VWS V14.01,2013-08-24 17:30:00,
2013-08-24 19:35:00,78.3,68.9,29.90,West,273,7.0,10.0,73,0.00,,,0.00,VWS V14.01,2013-08-24 17:35:00,
2013-08-24 19:40:00,78.3,68.9,29.89,West,271,0.0,7.0,73,0.00,,,0.00,VWS V14.01,2013-08-24 17:40:00,
2013-08-24 19:45:00,78.2,68.8,29.90,West,278,4.0,7.0,73,0.00,,,0.00,VWS V14.01,2013-08-24 17:45:00,
2013-08-24 19:50:00,78.1,69.1,29.90,West,271,0.0,7.0,74,0.00,,,0.00,VWS V14.01,2013-08-24 17:50:00,
2013-08-24 19:55:00,78.0,69.1,29.90,West,271,1.0,7.0,74,0.00,,,0.00,VWS V14.01,2013-08-24 17:55:00,
2013-08-24 20:00:00,77.7,69.2,29.90,West,271,1.0,5.0,75,0.00,,,0.00,VWS V14.01,2013-08-24 18:00:00,
2013-08-24 20:05:00,77.5,69.3,29.90,WNW,286,5.0,7.0,76,0.00,,,0.00,VWS V14.01,2013-08-24 18:05:00,
2013-08-24 20:10:00,77.4,69.2,29.90,WNW,292,1.0,4.0,76,0.00,,,0.00,VWS V14.01,2013-08-24 18:10:00,
2013-08-24 20:15:00,77.3,69.2,29.90,WNW,292,2.0,4.0,76,0.00,,,0.00,VWS V14.01,2013-08-24 18:15:00,
2013-08-24 20:20:00,77.1,69.3,29.90,WNW,292,0.0,3.0,77,0.00,,,0.00,VWS V14.01,2013-08-24 18:20:00,
2013-08-24 20:25:00,76.9,69.2,29.90,WNW,292,2.0,3.0,77,0.00,,,0.00,VWS V14.01,2013-08-24 18:25:00,
2013-08-24 20:30:00,76.8,69.1,29.90,WNW,292,0.0,1.0,77,0.00,,,0.00,VWS V14.01,2013-08-24 18:30:00,
2013-08-24 20:35:00,76.7,68.9,29.90,WNW,292,1.0,1.0,77,0.00,,,0.00,VWS V14.01,2013-08-24 18:35:00,
2013-08-24 20:40:00,76.6,69.2,29.90,WNW,292,0.0,1.0,78,0.00,,,0.00,VWS V14.01,2013-08-24 18:40:00,
2013-08-24 20:45:00,76.6,69.2,29.90,WNW,292,0.0,1.0,78,0.00,,,0.00,VWS V14.01,2013-08-24 18:45:00,
2013-08-24 20:50:00,76.6,68.9,29.90,WNW,292,0.0,1.0,77,0.00,,,0.00,VWS V14.01,2013-08-24 18:50:00,
2013-08-24 20:55:00,76.6,69.2,29.90,WNW,292,0.0,1.0,78,0.00,,,0.00,VWS V14.01,2013-08-24 18:55:00,
2013-08-24 21:00:00,76.5,69.1,29.90,WNW,292,0.0,0.0,78,0.00,,,0.00,VWS V14.01,2013-08-24 19:00:00,
2013-08-24 21:05:00,76.5,68.8,29.91,WNW,292,0.0,2.0,77,0.00,,,0.00,VWS V14.01,2013-08-24 19:05:00,
2013-08-24 21:10:00,76.3,68.9,29.91,WNW,292,0.0,1.0,78,0.00,,,0.00,VWS V14.01,2013-08-24 19:10:00,
2013-08-24 21:15:00,76.3,68.9,29.90,WNW,292,0.0,1.0,78,0.00,,,0.00,VWS V14.01,2013-08-24 19:15:00,
2013-08-24 21:20:00,76.3,68.9,29.91,WNW,292,0.0,0.0,78,0.00,,,0.00,VWS V14.01,2013-08-24 19:20:00,
2013-08-24 21:25:00,76.2,68.8,29.91,WNW,292,0.0,0.0,78,0.00,,,0.00,VWS V14.01,2013-08-24 19:25:00,
2013-08-24 21:30:00,76.2,68.8,29.91,WNW,292,0.0,1.0,78,0.00,,,0.00,VWS V14.01,2013-08-24 19:30:00,
2013-08-24 21:35:00,76.2,68.8,29.91,WNW,292,0.0,1.0,78,0.00,,,0.00,VWS V14.01,2013-08-24 19:35:00,
2013-08-24 21:40:00,76.2,68.8,29.91,WNW,292,0.0,0.0,78,0.00,,,0.00,VWS V14.01,2013-08-24 19:40:00,
2013-08-24 21:45:00,76.2,68.8,29.91,WNW,292,0.0,0.0,78,0.00,,,0.00,VWS V14.01,2013-08-24 19:45:00,
2013-08-24 21:50:00,76.0,68.3,29.91,WNW,292,0.0,0.0,77,0.00,,,0.00,VWS V14.01,2013-08-24 19:50:00,
2013-08-24 21:55:00,76.0,68.7,29.91,WNW,292,1.0,1.0,78,0.00,,,0.00,VWS V14.01,2013-08-24 19:55:00,
2013-08-24 22:00:00,76.0,68.7,29.91,WNW,292,0.0,0.0,78,0.00,,,0.00,VWS V14.01,2013-08-24 20:00:00,
2013-08-24 22:05:00,76.0,68.7,29.91,WNW,292,0.0,0.0,78,0.00,,,0.00,VWS V14.01,2013-08-24 20:05:00,
2013-08-24 22:10:00,76.1,68.8,29.91,WNW,292,0.0,0.0,78,0.00,,,0.00,VWS V14.01,2013-08-24 20:10:00,
2013-08-24 22:15:00,76.1,68.8,29.91,WNW,292,0.0,0.0,78,0.00,,,0.00,VWS V14.01,2013-08-24 20:15:00,
2013-08-24 22:20:00,76.1,68.8,29.91,WNW,292,0.0,0.0,78,0.00,,,0.00,VWS V14.01,2013-08-24 20:20:00,
2013-08-24 22:25:00,76.1,68.8,29.92,WNW,292,0.0,0.0,78,0.00,,,0.00,VWS V14.01,2013-08-24 20:25:00,
2013-08-24 22:30:00,76.0,68.7,29.91,WNW,292,0.0,0.0,78,0.00,,,0.00,VWS V14.01,2013-08-24 20:30:00,
2013-08-24 22:35:00,75.9,68.6,29.91,WNW,292,0.0,0.0,78,0.00,,,0.00,VWS V14.01,2013-08-24 20:35:00,
2013-08-24 22:40:00,75.9,68.6,29.91,WNW,292,0.0,0.0,78,0.00,,,0.00,VWS V14.01,2013-08-24 20:40:00,
2013-08-24 22:45:00,75.8,68.5,29.91,WNW,292,0.0,0.0,78,0.00,,,0.00,VWS V14.01,2013-08-24 20:45:00,
2013-08-24 22:50:00,75.6,68.3,29.91,WNW,292,0.0,1.0,78,0.00,,,0.00,VWS V14.01,2013-08-24 20:50:00,
2013-08-24 22:55:00,75.5,68.5,29.91,WNW,292,0.0,1.0,79,0.00,,,0.00,VWS V14.01,2013-08-24 20:55:00,
2013-08-24 23:00:00,75.4,68.4,29.91,WNW,292,1.0,1.0,79,0.00,,,0.00,VWS V14.01,2013-08-24 21:00:00,
2013-08-24 23:05:00,75.4,68.4,29.91,WNW,292,2.0,2.0,79,0.00,,,0.00,VWS V14.01,2013-08-24 21:05:00,
2013-08-24 23:10:00,75.4,68.4,29.91,WNW,292,1.0,2.0,79,0.00,,,0.00,VWS V14.01,2013-08-24 21:10:00,
2013-08-24 23:15:00,75.4,68.4,29.91,WNW,292,2.0,3.0,79,0.00,,,0.00,VWS V14.01,2013-08-24 21:15:00,
2013-08-24 23:20:00,75.4,68.4,29.91,WNW,292,1.0,3.0,79,0.00,,,0.00,VWS V14.01,2013-08-24 21:20:00,
2013-08-24 23:25:00,75.4,68.4,29.91,WNW,292,0.0,3.0,79,0.00,,,0.00,VWS V14.01,2013-08-24 21:25:00,
2013-08-24 23:30:00,75.4,68.4,29.91,WNW,292,0.0,2.0,79,0.00,,,0.00,VWS V14.01,2013-08-24 21:30:00,
2013-08-24 23:35:00,75.5,68.5,29.91,WNW,292,1.0,2.0,79,0.00,,,0.00,VWS V14.01,2013-08-24 21:35:00,
2013-08-24 23:40:00,75.6,68.3,29.91,WNW,292,0.0,2.0,78,0.00,,,0.00,VWS V14.01,2013-08-24 21:40:00,
2013-08-24 23:41:00,75.5,68.5,29.91,WNW,292,1.0,2.0,79,0.00,,,0.00,VWS V14.01,2013-08-24 21:41:00,
2013-08-24 23:46:00,75.6,68.6,29.91,WNW,292,1.0,2.0,79,0.00,,,0.00,VWS V14.01,2013-08-24 21:46:00,
2013-08-24 23:50:00,75.4,68.1,29.91,WNW,292,0.0,1.0,78,0.00,,,0.00,VWS V14.01,2013-08-24 21:50:00,
2013-08-24 23:51:00,75.5,68.2,29.91,WNW,292,0.0,1.0,78,0.00,,,0.00,VWS V14.01,2013-08-24 21:51:00,
2013-08-24 23:56:00,75.4,68.1,29.91,WNW,292,0.0,1.0,78,0.00,,,0.00,VWS V14.01,2013-08-24 21:56:00,